Location: East Horndon
(51.5667°N, 0.3500°E)
Time: 23:20:34
(UTC+00:00)

Cosmos 374 Rocket - Pass Details

Date: 08 November 2025
Orbit: 524 x 2035 km, 62.9° (Epoch: 04 December)

Event Time Altitude Azimuth Distance (km) Brightness Sun altitude
Exits shadow 05:57:06 - 237° (WSW) 2,097 6.9 -10.7°
Reaches altitude 10° 05:57:53 10° 239° (WSW) 1,775 6.5 -10.6°
Maximum altitude 06:01:40 63° 321° (NW) 642 4.4 -10.0°
Drops below altitude 10° 06:06:11 10° 43° (NE) 2,108 7.7 -9.4°
Sets 06:08:51 0° 47° (NE) 3,207 8.7 -9.0°
